Location: *
(49.1039°N, 7.3750°E)
Time: 14:54:33
(UTC+00:00)

Daily predictions for brighter satellites

Satellite Brightness Start Highest point End
(mag) Time Altitude Azimuth Time Altitude Azimuth Time Altitude Azimuth
Cosmos 1461 4.5 18:35:10 10° NNW 18:38:57 26° NE 18:42:50 10° E
CZ-2C R/B 3.0 18:34:27 10° SSE 18:39:14 55° ENE 18:43:53 10° N
Meteor 2-15 4.4 18:33:53 10° S 18:39:54 77° E 18:45:59 10° NNE
CZ-4C R/B 4.4 18:37:05 10° NW 18:41:52 23° N 18:47:19 10° NE
STARLINK-1244 4.4 18:38:21 10° W 18:42:24 50° N 18:46:27 10° ENE
STARLINK-1138 4.4 18:43:20 10° W 18:47:23 49° N 18:51:26 10° ENE
H-2A R/B 2.0 18:43:47 10° SSE 18:48:59 76° ENE 18:54:05 10° N
SJ-11-01 4.5 18:46:27 10° S 18:51:09 79° WSW 18:55:55 10° NNW
NOSS 3-4 (A) 4.1 18:44:48 10° NW 18:51:31 56° NE 18:58:54 10° ESE
NOSS 3-4 (C) 4.1 18:44:55 10° NW 18:51:37 56° NE 18:58:59 10° ESE
STARLINK-1143 4.4 18:48:19 10° W 18:52:21 49° N 18:56:24 10° ENE
ADEOS Rocket 3.8 18:47:05 10° N 18:53:32 59° WNW 18:59:19 10° SW
Cosmos 1656 Rocket 3.9 18:47:59 10° NNW 18:53:37 58° ENE 18:59:07 10° SE
SL-16 R/B 3.4 18:51:45 10° SW 18:57:11 47° NW 19:02:40 10° NNE
CZ-2C R/B 3.6 18:53:09 10° NE 18:57:19 24° E 19:01:29 10° SE
STARLINK-1241 4.4 18:53:22 10° W 18:57:24 48° N 19:01:26 10° ENE
STARLINK-1228 3.7 18:55:38 10° WNW 18:58:25 39° N 19:01:05 11° E
Resurs 1-3 4.3 18:56:06 10° SE 19:00:07 36° ENE 19:04:09 10° N
NOSS 3-3 (A) 3.9 18:55:57 10° SSW 19:01:47 71° SE 19:08:26 10° NE
NOSS 3-3 (C) 3.9 18:56:03 10° SSW 19:01:54 70° SE 19:08:32 10° NE
STARLINK-1239 4.4 18:58:21 10° WNW 19:02:23 48° N 19:06:25 10° ENE
Cosmos 2251 Rocket 3.5 18:57:21 10° SSW 19:02:43 83° ESE 19:08:08 10° NNE
Cosmos 1726 2.2 18:59:08 10° S 19:02:47 55° E 19:06:28 10° NNE
MetOp-A 4.4 18:57:39 10° SE 19:02:48 50° ENE 19:07:58 10° N
ARGOS 3.2 18:59:22 10° SSE 19:04:47 86° ENE 19:10:12 10° NNW
Cosmos 2184 Rocket 4.0 18:59:26 10° N 19:05:46 72° ENE 19:11:59 10° SSE
MONITOR-E 3.8 19:03:54 10° S 19:06:32 78° WSW 19:09:11 10° NNW
ISS -1.5 19:04:20 10° W 19:06:47 19° SW 19:09:13 10° S
STARLINK-1240 4.4 19:03:22 10° WNW 19:07:24 48° N 19:11:26 10° ENE
SJ-6B 2.9 19:04:08 10° SSE 19:08:14 80° ENE 19:12:24 10° N
STARLINK-1233 3.9 19:05:32 10° WNW 19:08:32 41° N 19:11:11 13° ENE
STARLINK-1212 3.9 19:05:59 10° WNW 19:08:59 41° N 19:11:36 13° ENE
STARLINK-1105 3.9 19:06:26 10° WNW 19:09:26 41° N 19:12:03 13° ENE
STARLINK-1206 3.8 19:06:56 10° WNW 19:09:55 41° N 19:12:28 13° ENE
STARLINK-1247 3.8 19:07:23 10° WNW 19:10:22 41° N 19:12:54 13° ENE
STARLINK-1227 3.8 19:07:48 10° WNW 19:10:48 41° N 19:13:20 13° ENE
Cosmos 967 Rocket 4.5 19:04:27 10° SSW 19:10:52 74° ESE 19:17:22 10° NE
BREEZE M DEB (TANK) 4.3 19:08:43 10° SSE 19:11:05 16° ESE 19:15:02 10° E
STARLINK-1218 3.8 19:08:17 10° WNW 19:11:17 41° N 19:13:47 13° ENE
Meteor 2-10 4.1 19:06:16 10° S 19:11:41 71° E 19:17:19 10° NNE
STARLINK-1226 3.8 19:08:43 10° WNW 19:11:44 41° N 19:14:12 14° ENE
STARLINK-1254 3.8 19:09:08 10° WNW 19:12:09 41° N 19:14:38 14° ENE
STARLINK-1216 4.4 19:08:23 10° WNW 19:12:25 48° N 19:16:24 10° ENE
STARLINK-1215 3.8 19:09:38 10° WNW 19:12:38 41° N 19:15:04 14° ENE
STARLINK-1231 3.8 19:10:05 10° WNW 19:13:05 41° N 19:15:30 14° ENE
STARLINK-67 3.0 19:10:38 10° WNW 19:13:08 48° NNE 19:14:43 19° E
USA 186 2.3 19:09:58 10° S 19:13:17 62° W 19:16:29 10° NNW
STARLINK-1232 3.8 19:11:00 10° WNW 19:13:59 41° N 19:16:22 14° ENE
STARLINK-1217 3.8 19:11:27 10° WNW 19:14:26 41° N 19:16:48 15° ENE
STARLINK-1208 3.8 19:11:51 10° WNW 19:14:52 42° N 19:17:15 15° ENE
STARLINK-1229 3.8 19:12:20 10° WNW 19:15:20 42° N 19:17:39 15° ENE
STARLINK-1271 3.8 19:12:48 10° WNW 19:15:48 42° N 19:18:07 15° ENE
STARLINK-1234 3.6 19:12:56 10° WNW 19:15:52 45° NNE 19:17:59 17° E
STARLINK-1270 3.8 19:13:15 10° WNW 19:16:16 42° N 19:18:33 15° ENE
STARLINK-1154 3.8 19:13:41 10° WNW 19:16:42 42° N 19:18:57 15° ENE
STARLINK-1237 4.4 19:13:22 10° WNW 19:17:23 48° N 19:21:10 12° ENE
STARLINK-1197 3.8 19:14:36 10° WNW 19:17:36 42° N 19:19:50 16° ENE
STARLINK-1189 3.8 19:15:03 10° WNW 19:18:03 42° N 19:20:16 16° ENE
STARLINK-1198 3.8 19:15:30 10° WNW 19:18:30 42° N 19:20:42 16° ENE
STARLINK-1209 3.5 19:15:48 10° WNW 19:18:43 46° NNE 19:20:38 18° E
IRIDIUM 104 4.5 19:13:32 10° N 19:18:46 81° W 19:23:59 10° S
STARLINK-1188 3.8 19:15:57 10° WNW 19:18:57 42° N 19:21:08 16° ENE
STARLINK-1235 3.6 19:16:37 10° WNW 19:19:40 46° NNE 19:21:46 18° E
Cosmos 1603 3.7 19:14:02 10° SSW 19:19:40 89° ESE 19:25:19 10° NNE
STARLINK-1187 3.7 19:17:01 10° WNW 19:20:05 45° N 19:22:12 17° E
FREGAT/IRIS 3.7 19:17:34 10° S 19:20:10 40° W 19:22:47 10° NNW
STARLINK-1199 3.7 19:17:53 10° WNW 19:20:56 43° N 19:23:03 17° ENE
Cosmos 2058 Rocket 3.8 19:17:04 10° SSE 19:21:07 33° E 19:25:11 10° NNE
STARLINK-1191 3.7 19:18:21 10° WNW 19:21:23 43° N 19:23:29 17° ENE
STARLINK-1210 3.7 19:18:48 10° WNW 19:21:51 43° N 19:23:55 17° ENE
Ariane Rocket 3.9 19:17:08 10° S 19:22:03 50° W 19:27:00 10° NNW
STARLINK-1221 3.7 19:19:15 10° WNW 19:22:18 43° N 19:24:21 18° ENE
STARLINK-1202 4.4 19:18:21 10° WNW 19:22:23 48° N 19:25:56 13° ENE
MOS 1 Rocket 4.0 19:17:27 10° NNE 19:22:31 42° E 19:27:40 10° SSE
STARLINK-1219 3.7 19:19:41 10° WNW 19:22:44 44° N 19:24:47 18° ENE
STARLINK-1222 3.7 19:20:09 10° WNW 19:23:12 44° N 19:25:13 18° ENE
STARLINK-1211 3.7 19:20:36 10° WNW 19:23:38 44° N 19:25:39 18° ENE
STARLINK-1214 3.7 19:21:03 10° WNW 19:24:06 44° N 19:26:05 18° ENE
ATLAS 2AS CENTAUR R/B 2.9 19:16:22 10° NW 19:24:07 80° NE 19:29:59 16° SE
USA 234 3.9 19:18:43 10° ENE 19:24:24 31° SE 19:30:02 10° S
STARLINK-1245 3.7 19:21:33 10° WNW 19:24:34 44° N 19:26:30 19° ENE
Resurs 01 Rocket 2.0 19:21:42 16° SE 19:24:57 45° ENE 19:29:10 10° N
STARLINK-1238 3.7 19:21:57 10° WNW 19:25:00 44° N 19:26:57 19° ENE
STARLINK-1205 3.7 19:22:54 10° WNW 19:25:55 44° N 19:27:49 19° ENE
STARLINK-1204 3.7 19:23:21 10° WNW 19:26:22 44° N 19:28:14 20° ENE
STARLINK-1203 4.4 19:22:34 10° WNW 19:26:40 49° N 19:30:01 15° ENE
Cosmos 2154 Rocket 4.0 19:21:38 10° N 19:28:00 69° ENE 19:34:19 10° SSE
Meteor 1-16 Rocket 4.1 19:23:41 10° S 19:29:05 83° E 19:34:41 10° NNE
SeaSat 1 4.1 19:25:38 10° NNE 19:30:10 37° NW 19:34:42 10° WSW
Cosmos 1190 Rocket 4.5 19:25:55 10° S 19:30:45 38° ESE 19:35:37 10° NE
Nadezhda 1 Rocket 4.0 19:25:42 10° S 19:32:01 66° E 19:38:18 10° NNE
Cosmos 1140 Rocket 4.1 19:27:31 10° SSE 19:32:08 33° ESE 19:36:44 10° NE
SL-4 R/B 1.9 19:29:03 10° SW 19:32:15 41° SSE 19:33:43 26° E
STARLINK-1246 4.3 19:28:21 10° WNW 19:32:23 48° N 19:35:30 16° ENE
Spot 2 Rocket 4.3 19:31:32 20° ESE 19:34:19 35° ENE 19:38:54 10° N
Cosmos 1726 Rocket 3.5 19:30:02 10° S 19:34:24 67° E 19:38:50 10° NNE
STARLINK-1201 3.7 19:31:31 10° WNW 19:34:41 47° NNE 19:36:24 23° ENE
Cosmos 1340 Rocket 3.2 19:32:48 13° SSE 19:36:09 42° E 19:39:59 10° NNE
STARLINK-1224 4.3 19:33:21 10° WNW 19:37:23 49° N 19:40:17 18° ENE
ATLAS 5 CENTAUR R/B 2.3 19:34:12 10° S 19:37:47 29° ESE 19:41:44 10° ENE
Cosmos 1825 Rocket 4.1 19:35:03 10° NNW 19:39:25 60° W 19:43:41 10° S
Cosmos 1328 3.9 19:35:28 10° NNW 19:39:29 79° W 19:43:15 11° S
STARLINK-1225 4.3 19:38:22 10° WNW 19:42:25 49° N 19:45:05 20° ENE
Cosmos 1703 3.6 19:40:57 10° NNW 19:44:53 66° W 19:48:40 11° S
Meteor 2-17 Rocket 4.4 19:38:57 10° N 19:45:09 88° E 19:51:19 10° S
STARLINK-1230 4.3 19:43:21 10° WNW 19:47:25 50° N 19:49:52 22° ENE
Cosmos 614 Rocket 3.9 19:43:48 10° SSW 19:49:00 72° ESE 19:54:13 10° NNE
Cosmos 1943 Rocket 4.3 19:45:01 10° NW 19:49:17 23° WSW 19:53:33 10° SSW
Cosmos 1300 3.4 19:50:48 33° E 19:50:56 33° E 19:54:25 10° NNE
Cosmos 2369 Rocket 3.9 19:46:30 10° NW 19:51:21 29° WSW 19:56:09 10° SSW
SPOT 3 Rocket 3.9 19:46:19 10° S 19:51:29 64° WSW 19:56:41 10° NNW
Abrixas rocket 1.8 19:48:56 10° W 19:51:54 76° S 19:52:19 60° ESE
STARLINK-1243 4.2 19:48:19 10° WNW 19:52:23 51° N 19:54:37 24° ENE
SL-24 R/B 4.1 19:49:01 10° N 19:53:17 73° WNW 19:57:06 10° SSW
COSMOS 2455 2.9 19:47:22 10° NNW 19:53:23 65° NE 19:56:39 28° SE
IGS 5A 4.4 19:53:17 28° E 19:54:06 31° ENE 19:57:47 10° N
CZ-2C R/B 4.0 19:50:23 10° N 19:55:08 74° WNW 19:59:46 10° SSW
Cosmos 921 Rocket 2.9 19:51:26 10° NNW 19:55:37 66° ENE 19:57:11 36° SE
STARLINK-1236 4.2 19:53:20 10° WNW 19:57:25 52° N 19:59:25 27° ENE
Cosmos 676 Rocket 4.4 19:56:21 23° SSE 19:59:02 40° ESE 20:03:56 10° NE
Cosmos 1953 Rocket 4.3 19:55:23 10° NNW 19:59:46 55° W 20:04:01 11° S
Cosmos 407 Rocket 3.3 19:55:14 10° SSW 20:00:22 75° ESE 20:05:30 10° NNE
Cosmos 2228 3.7 19:56:34 10° SSW 20:00:47 57° WNW 20:05:05 10° N
Cosmos 1606 Rocket 4.4 19:59:07 10° SSW 20:03:26 51° WNW 20:07:49 10° N
Cosmos 1908 3.8 20:00:10 10° SSW 20:03:58 57° WNW 20:07:49 10° N
STARLINK-1269 4.1 20:03:20 10° WNW 20:07:25 54° NNE 20:09:00 33° ENE
Cosmos 1818 3.9 20:03:06 10° SW 20:08:32 69° NW 20:13:59 10° NE
ERS-1 Rocket 3.7 20:07:40 31° E 20:08:51 35° ENE 20:13:24 10° N
ATLAS CENTAUR R/B 3.7 20:07:37 10° N 20:09:38 13° NNE 20:11:25 11° NE
ERBS 3.6 20:06:43 10° NW 20:09:48 31° NNE 20:10:29 29° NE
STARLINK-1200 4.1 20:08:19 10° WNW 20:12:25 56° NNE 20:13:47 37° ENE
Landsat 7 4.1 20:11:38 40° ESE 20:12:52 51° ENE 20:17:29 10° N
SPOT 1/Viking Rocket 3.8 20:14:30 38° ESE 20:16:03 51° ENE 20:21:07 10° N
Cosmos 220 Rocket 4.4 20:13:05 10° NNW 20:17:15 45° ENE 20:17:46 43° E
STARLINK-1192 4.0 20:13:18 10° WNW 20:17:24 57° NNE 20:18:33 41° ENE
MetOp-B 4.1 20:15:08 32° SSE 20:17:46 86° ENE 20:23:10 10° NNW
Cosmos 1943 4.3 20:12:31 10° SW 20:17:57 47° NW 20:23:29 10° NNE
Cosmos 1461 3.3 20:13:56 10° NW 20:18:26 67° SW 20:19:51 42° SSE
STARLINK-1244 4.0 20:18:17 10° WNW 20:22:24 59° NNE 20:23:20 46° ENE
Cosmos 1954 Rocket 3.9 20:21:02 30° S 20:23:31 60° ESE 20:28:40 10° NNE
SAR-Lupe-2 3.4 20:22:50 10° NNE 20:26:27 89° WNW 20:26:38 80° SSW
STARLINK-1138 3.9 20:23:15 10° WNW 20:27:22 61° NNE 20:28:06 51° ENE
Cosmos 1023 Rocket 4.5 20:27:03 10° SSW 20:32:14 79° WNW 20:37:25 10° NNE
STARLINK-1143 3.8 20:28:13 10° WNW 20:32:20 63° NNE 20:32:52 57° NE
CZ-4C R/B 4.0 20:26:31 10° NW 20:32:27 33° NNE 20:37:07 18° ENE
Cosmos 2151 4.3 20:29:20 10° N 20:32:13 26° NE 20:32:13 26° NE
STARLINK-1228 4.3 20:30:38 10° WNW 20:32:28 34° W 20:32:28 34° W
Cosmos 1697 Rocket 3.9 20:29:05 10° NNW 20:34:00 29° NE 20:35:27 26° ENE
Cosmos 1076 Rocket 3.4 20:30:46 10° N 20:35:02 65° ENE 20:35:03 65° E
SPOT 5 3.1 20:36:47 45° ENE 20:36:47 45° ENE 20:40:47 10° N
STARLINK-1241 3.7 20:33:14 10° WNW 20:37:22 66° NNE 20:37:41 63° NE
CZ-2C R/B 3.3 20:32:54 10° N 20:37:56 53° WNW 20:42:58 10° SW
Iridium 2 3.8 20:42:00 71° N 20:42:00 71° N 20:45:26 10° N
STARLINK-1239 3.7 20:38:12 10° WNW 20:42:21 68° NNE 20:42:27 68° NNE
Cosmos 2341 Rocket 4.4 20:36:27 10° NNW 20:42:45 63° W 20:46:40 24° SSW
STARLINK-1233 4.5 20:41:23 10° WNW 20:43:20 34° WNW 20:43:20 34° WNW
Cosmos 2058 2.9 20:40:27 10° N 20:44:18 74° NNE 20:44:18 74° NNE
STARLINK-1240 3.7 20:43:12 10° WNW 20:47:15 71° N 20:47:15 71° N
Cosmos 1763 Rocket 3.5 20:44:03 10° NNW 20:49:13 58° ENE 20:49:35 56° E
STARLINK-1216 3.8 20:48:11 10° WNW 20:52:03 69° NNW 20:52:03 69° NNW
Cosmos 1408 4.2 20:50:04 10° N 20:52:05 28° NNE 20:52:05 28° NNE
Terra 2.1 20:55:02 51° ENE 20:55:02 51° ENE 20:59:26 10° N
USA 32 4.1 20:50:28 10° N 20:55:38 57° E 20:55:38 57° E
RESURS DK-1 3.6 20:53:11 10° NNW 20:56:27 33° NNE 20:56:27 33° NNE
STARLINK-1237 3.9 20:53:09 10° WNW 20:56:48 65° NW 20:56:48 65° NW
Cosmos 1174 4.1 20:54:12 10° NW 20:57:56 73° N 20:57:56 73° N
Cosmos 2218 Rocket 4.1 20:54:07 10° NNW 21:00:19 73° W 21:02:25 43° SSW
Cosmos 192 4.2 20:55:55 10° NNW 21:00:54 82° WSW 21:01:06 80° SSW
Cosmos 1455 4.4 21:03:41 19° NNE 21:03:41 19° NNE 21:04:53 10° NNE
Resurs 01 Rocket 3.7 20:59:16 15° SW 21:01:39 22° W 21:05:07 10° NW
Cosmos 1980 Rocket 3.5 20:57:30 10° NNW 21:02:14 27° NE 21:03:10 26° ENE
STARLINK-1202 4.1 20:58:07 10° WNW 21:01:35 59° NW 21:01:35 59° NW
Cosmos 1892 3.4 20:58:51 10° NNW 21:01:53 52° NNW 21:01:53 52° NNW
Cosmos 540 Rocket 4.1 20:59:35 10° NNW 21:04:25 41° NE 21:04:25 41° NE
STARLINK-1203 4.2 21:02:31 10° WNW 21:05:52 55° WNW 21:05:52 55° WNW
USA 234 3.1 21:01:23 10° ENE 21:07:58 87° SE 21:14:32 10° WSW
Okean 3 Rocket 4.3 21:04:55 10° N 21:08:14 44° NNE 21:08:14 44° NNE
CARTOSAT-1 3.8 21:10:07 66° NNW 21:10:07 66° NNW 21:13:54 10° NNW
Cosmos 1656 3.6 21:04:34 10° NNW 21:10:18 73° ENE 21:10:37 71° E
Iridium 4 Rocket 3.5 21:06:46 10° N 21:10:42 55° WNW 21:10:42 55° WNW
SL-4 R/B 4.0 21:08:19 10° W 21:09:22 18° W 21:09:22 18° W
STARLINK-1246 4.5 21:08:05 10° WNW 21:11:09 48° WNW 21:11:09 48° WNW
ATLAS 2AS CENTAUR R/B 4.2 21:08:14 10° NW 21:14:20 28° WSW 21:17:27 20° SSW
Cosmos 2181 Rocket 4.5 21:12:14 24° SSW 21:16:00 58° WNW 21:22:07 10° N
Cosmos 1825 3.9 21:14:33 10° N 21:16:32 28° N 21:16:32 28° N
Cosmos 1766 Rocket 4.5 21:16:46 10° N 21:20:00 44° NNE 21:20:00 44° NNE
ATLAS 5 CENTAUR R/B 2.6 21:18:01 10° WSW 21:22:10 46° NW 21:26:53 10° NE
Cosmos 841 Rocket 3.7 21:19:23 10° NNW 21:24:13 62° NE 21:24:13 62° NE
Cosmos 2278 4.3 21:20:06 10° NNW 21:25:29 43° NE 21:25:34 43° NE
Cosmos 2082 Rocket 4.3 21:33:29 15° ENE 21:33:29 15° ENE 21:34:38 10° NE
Cosmos 1570 Rocket 4.1 21:24:53 10° NNW 21:29:51 76° N 21:29:51 76° N
Mayak 0.9 21:29:17 10° NNE 21:30:35 19° NNE 21:30:35 19° NNE
Cosmos 468 Rocket 4.5 21:29:02 10° NNW 21:33:48 53° W 21:33:48 53° W
ASTEX 1 4.1 21:39:12 49° NNE 21:39:12 49° NNE 21:42:57 10° N
COSMOS 2455 4.2 21:33:54 10° NW 21:38:54 28° WSW 21:39:49 26° SW
Nadezhda 3 Rocket 3.9 21:43:48 84° E 21:43:48 84° E 21:50:05 10° N
COSMOS 2406 3.7 21:45:30 51° NE 21:45:30 51° NE 21:49:46 10° NNE
Cosmos 1833 Rocket 4.0 21:47:50 28° NE 21:47:50 28° NE 21:50:37 10° NE
ERS-1 Rocket 4.1 21:47:38 36° W 21:47:38 36° W 21:52:16 10° NNW
ATLAS CENTAUR R/B 3.4 21:45:43 10° NNW 21:47:36 25° NNW 21:47:36 25° NNW
Cosmos 2369 4.1 22:01:05 10° NNW 22:05:45 60° NW 22:05:45 60° NW
Meteor 2-10 Rocket 4.3 22:12:36 47° NW 22:12:36 47° NW 22:17:21 10° N
Cosmos 1821 Rocket 4.5 22:08:15 10° NNW 22:14:25 53° W 22:14:33 53° W
Cosmos 1697 Rocket 3.3 22:12:47 10° NNW 22:17:11 50° WNW 22:17:11 50° WNW
CZ-4C R/B 2.8 22:14:56 10° NW 22:22:00 80° NE 22:22:18 79° ENE
Cosmos 1934 Rocket 4.2 22:16:43 10° NNW 22:22:23 67° NW 22:22:23 67° NW
Meteor 2-3 Rocket 4.3 22:22:06 10° NNW 22:26:44 53° NW 22:26:44 53° NW
Terra 3.9 22:33:54 20° WNW 22:33:54 20° WNW 22:36:32 10° NW
SL-16 R/B 3.3 22:27:37 10° NNW 22:32:21 37° NE 22:32:21 37° NE
Cosmos 1605 Rocket 4.2 22:27:24 10° N 22:32:34 65° NNW 22:32:34 65° NNW
Cosmos 2360 Rocket 3.9 22:34:29 10° N 22:38:56 23° NE 22:39:34 23° NE
Cosmos 2322 Rocket 3.4 22:37:32 10° NNW 22:42:09 36° NE 22:42:09 36° NE
Cosmos 1980 Rocket 3.1 22:41:09 10° NNW 22:44:56 43° NW 22:44:56 43° NW
USA 234 3.9 22:44:28 10° ENE 22:50:45 51° NNW 22:57:01 10° W
ATLAS 5 CENTAUR R/B 4.4 23:04:46 10° WNW 23:08:04 19° NNW 23:11:42 10° NNE
Mayak 1.4 23:05:32 10° NNW 23:07:09 17° NW 23:07:09 17° NW
Cosmos 2082 Rocket 3.2 23:15:18 44° N 23:15:18 44° N 23:19:23 10° NNE
Cosmos 2344 4.3 23:07:31 10° NW 23:17:03 70° SW 23:18:38 64° SSW
Cosmos 1833 Rocket 4.0 23:29:28 34° NW 23:29:28 34° NW 23:34:27 10° NNE
SL-16 R/B 4.3 23:29:18 21° ENE 23:30:58 24° NE 23:35:43 10° N
Cosmos 2219 Rocket 4.0 23:34:17 10° N 23:38:48 24° NE 23:40:10 22° ENE
Cosmos 1607 4.5 23:48:20 54° N 23:48:20 54° N 23:53:22 10° NE
COSMOS 2428 4.4 23:46:36 10° NNW 23:51:27 27° NE 23:52:46 25° ENE
